When you browse on this site, cookies collect data to enhance your experience and personalize the content and advertising you see.
Visit our Privacy Policy to learn more. By continuing to use the site, you agree to this use of cookies and data.
  • In Hungary
  • List of Countries
  • For 7 days
  • Water Temperature
  • Weather Map
  • News
  • Weather Widgets
  • user-avatar
    Login

    Hourly Weather Verhoture

    Today, 20 January, Monday

    Time Temperature Precipitation Wind Pressure Humidity
    00:00 -13°C° 0.2 mm 2 mps 751 mmHg 94%
    01:00 -13°C° 0.2 mm 2 mps 751 mmHg 95%
    02:00 -14°C° 0.2 mm 2 mps 751 mmHg 95%
    03:00 -14°C° 0.2 mm 2 mps 751 mmHg 95%
    04:00 -14°C° 0 mm 2 mps 751 mmHg 95%
    05:00 -14°C° 0.2 mm 2 mps 751 mmHg 95%
    06:00 -15°C° 0.2 mm 2 mps 751 mmHg 95%
    07:00 -15°C° 0.2 mm 2 mps 750 mmHg 95%
    08:00 -15°C° 0.1 mm 2 mps 751 mmHg 95%
    09:00 -15°C° 0.1 mm 2 mps 751 mmHg 94%
    10:00 -16°C° 0.1 mm 2 mps 751 mmHg 94%
    11:00 -15°C° 0 mm 2 mps 751 mmHg 94%
    12:00 -15°C° 0 mm 2 mps 750 mmHg 94%
    13:00 -15°C° 0 mm 2 mps 750 mmHg 93%
    14:00 -16°C° 0 mm 2 mps 750 mmHg 95%
    15:00 -17°C° 0 mm 2 mps 750 mmHg 96%
    16:00 -16°C° 0 mm 1 mps 750 mmHg 97%
    17:00 -16°C° 0 mm 1 mps 750 mmHg 97%
    18:00 -17°C° 0 mm 1 mps 750 mmHg 98%
    19:00 -18°C° 0 mm 1 mps 750 mmHg 98%
    20:00 -18°C° 0 mm 0 mps 750 mmHg 98%
    21:00 -19°C° 0 mm 0 mps 750 mmHg 98%
    22:00 -19°C° 0 mm 0 mps 750 mmHg 99%
    23:00 -19°C° 0 mm 0 mps 749 mmHg 99%

    Tomorrow, 21 January, Tuesday

    Time Temperature Precipitation Wind Pressure Humidity
    00:00 -20°C° 0 mm 0 mps 749 mmHg 99%
    01:00 -20°C° 0 mm 0 mps 749 mmHg 99%
    02:00 -20°C° 0 mm 1 mps 749 mmHg 99%
    03:00 -20°C° 0 mm 1 mps 748 mmHg 99%
    04:00 -20°C° 0 mm 1 mps 748 mmHg 99%
    05:00 -20°C° 0 mm 1 mps 748 mmHg 99%
    06:00 -20°C° 0 mm 1 mps 747 mmHg 99%
    07:00 -20°C° 0 mm 1 mps 747 mmHg 99%
    08:00 -23°C° 0 mm 2 mps 747 mmHg 98%
    09:00 -21°C° 0 mm 2 mps 746 mmHg 97%
    10:00 -20°C° 0 mm 2 mps 746 mmHg 96%
    11:00 -19°C° 0 mm 2 mps 745 mmHg 94%
    12:00 -18°C° 0 mm 3 mps 744 mmHg 93%
    13:00 -17°C° 0 mm 3 mps 743 mmHg 91%
    14:00 -17°C° 0 mm 3 mps 743 mmHg 92%
    15:00 -17°C° 0 mm 3 mps 742 mmHg 93%
    16:00 -17°C° 0 mm 3 mps 742 mmHg 94%
    17:00 -17°C° 0 mm 3 mps 741 mmHg 94%
    18:00 -17°C° 0 mm 3 mps 740 mmHg 94%
    19:00 -16°C° 0 mm 3 mps 739 mmHg 94%
    20:00 -17°C° 0 mm 4 mps 738 mmHg 94%
    21:00 -16°C° 0 mm 4 mps 737 mmHg 94%
    22:00 -15°C° 0 mm 4 mps 736 mmHg 94%
    23:00 -14°C° 0 mm 4 mps 735 mmHg 92%

    Day after tomorrow, 22 January, Wednesday

    Time Temperature Precipitation Wind Pressure Humidity
    00:00 -13°C° 0 mm 5 mps 734 mmHg 91%
    01:00 -11°C° 0 mm 5 mps 733 mmHg 89%
    02:00 -11°C° 0.1 mm 5 mps 732 mmHg 90%
    03:00 -10°C° 0.1 mm 5 mps 731 mmHg 91%
    04:00 -10°C° 0.1 mm 5 mps 730 mmHg 91%
    05:00 -10°C° 0.3 mm 5 mps 729 mmHg 91%
    06:00 -10°C° 0.3 mm 5 mps 728 mmHg 92%
    07:00 -8°C° 0.3 mm 5 mps 728 mmHg 92%
    08:00 -8°C° 0.2 mm 5 mps 727 mmHg 91%
    09:00 -8°C° 0.2 mm 5 mps 727 mmHg 90%
    10:00 -8°C° 0.2 mm 5 mps 726 mmHg 89%
    11:00 -7°C° 0 mm 5 mps 726 mmHg 88%
    12:00 -7°C° 0 mm 4 mps 725 mmHg 88%
    13:00 -7°C° 0 mm 4 mps 725 mmHg 87%
    14:00 -7°C° 0 mm 4 mps 725 mmHg 88%
    15:00 -6°C° 0 mm 3 mps 725 mmHg 90%
    16:00 -6°C° 0 mm 3 mps 724 mmHg 91%
    17:00 -7°C° 0 mm 3 mps 724 mmHg 92%
    18:00 -7°C° 0 mm 3 mps 724 mmHg 92%
    19:00 -8°C° 0 mm 3 mps 723 mmHg 93%
    20:00 -7°C° 0 mm 2 mps 723 mmHg 94%
    21:00 -7°C° 0 mm 2 mps 723 mmHg 94%
    22:00 -7°C° 0 mm 2 mps 722 mmHg 95%
    23:00 -7°C° 0.4 mm 2 mps 722 mmHg 95%

    23 January, Thursday

    Time Temperature Precipitation Wind Pressure Humidity
    00:00 -8°C° 0.4 mm 3 mps 722 mmHg 95%
    01:00 -7°C° 0.4 mm 3 mps 721 mmHg 95%
    02:00 -7°C° 0.5 mm 3 mps 721 mmHg 94%
    03:00 -8°C° 0.5 mm 4 mps 722 mmHg 93%
    04:00 -8°C° 0.5 mm 4 mps 722 mmHg 91%
    05:00 -8°C° 0.2 mm 5 mps 722 mmHg 90%
    06:00 -10°C° 0.2 mm 5 mps 722 mmHg 88%
    07:00 -10°C° 0.2 mm 5 mps 722 mmHg 86%
    08:00 -10°C° 0 mm 5 mps 723 mmHg 84%
    09:00 -10°C° 0 mm 5 mps 723 mmHg 83%
    10:00 -8°C° 0 mm 5 mps 724 mmHg 81%
    11:00 -8°C° 0 mm 5 mps 725 mmHg 81%
    12:00 -8°C° 0 mm 5 mps 725 mmHg 80%
    13:00 -8°C° 0 mm 5 mps 726 mmHg 79%
    14:00 -8°C° 0 mm 5 mps 727 mmHg 80%
    15:00 -10°C° 0 mm 5 mps 727 mmHg 82%
    16:00 -10°C° 0 mm 4 mps 728 mmHg 83%
    17:00 -10°C° 0 mm 4 mps 729 mmHg 84%
    18:00 -11°C° 0 mm 4 mps 730 mmHg 84%
    19:00 -11°C° 0 mm 4 mps 730 mmHg 85%
    20:00 -12°C° 0 mm 4 mps 731 mmHg 86%
    21:00 -12°C° 0 mm 4 mps 731 mmHg 86%
    22:00 -12°C° 0 mm 4 mps 732 mmHg 87%
    23:00 -13°C° 0 mm 3 mps 732 mmHg 87%

    24 January, Friday

    Time Temperature Precipitation Wind Pressure Humidity
    00:00 -14°C° 0 mm 3 mps 733 mmHg 88%
    01:00 -14°C° 0 mm 3 mps 733 mmHg 88%
    02:00 -14°C° 0 mm 3 mps 733 mmHg 89%
    03:00 -15°C° 0 mm 3 mps 734 mmHg 89%
    04:00 -15°C° 0 mm 3 mps 734 mmHg 90%
    05:00 -16°C° 0 mm 3 mps 734 mmHg 89%
    06:00 -16°C° 0 mm 3 mps 735 mmHg 89%
    07:00 -16°C° 0 mm 3 mps 735 mmHg 89%
    08:00 -16°C° 0 mm 3 mps 735 mmHg 88%
    09:00 -16°C° 0 mm 3 mps 736 mmHg 87%
    10:00 -16°C° 0 mm 4 mps 736 mmHg 86%
    11:00 -15°C° 0 mm 4 mps 737 mmHg 85%
    12:00 -15°C° 0 mm 4 mps 737 mmHg 84%
    13:00 -14°C° 0 mm 4 mps 737 mmHg 83%
    14:00 -13°C° 0 mm 3 mps 737 mmHg 84%
    15:00 -14°C° 0 mm 3 mps 738 mmHg 85%
    16:00 -15°C° 0 mm 3 mps 738 mmHg 86%
    17:00 -15°C° 0 mm 3 mps 738 mmHg 86%
    18:00 -16°C° 0 mm 3 mps 738 mmHg 87%
    19:00 -16°C° 0 mm 3 mps 739 mmHg 87%
    20:00 -17°C° 0 mm 3 mps 739 mmHg 87%
    21:00 -17°C° 0 mm 3 mps 739 mmHg 87%
    22:00 -17°C° 0 mm 3 mps 740 mmHg 87%
    23:00 -17°C° 0 mm 3 mps 740 mmHg 88%

    25 January, Saturday

    Time Temperature Precipitation Wind Pressure Humidity
    00:00 -18°C° 0 mm 3 mps 740 mmHg 89%
    01:00 -18°C° 0 mm 3 mps 740 mmHg 89%
    02:00 -19°C° 0 mm 3 mps 740 mmHg 89%
    03:00 -19°C° 0 mm 3 mps 740 mmHg 90%
    04:00 -19°C° 0 mm 3 mps 740 mmHg 90%
    05:00 -21°C° 0 mm 3 mps 740 mmHg 91%
    06:00 -21°C° 0 mm 3 mps 740 mmHg 91%
    07:00 -21°C° 0 mm 3 mps 740 mmHg 91%
    08:00 -19°C° 0 mm 3 mps 739 mmHg 91%
    09:00 -18°C° 0 mm 3 mps 739 mmHg 90%
    10:00 -18°C° 0 mm 4 mps 739 mmHg 89%
    11:00 -17°C° 0 mm 4 mps 738 mmHg 89%
    12:00 -16°C° 0 mm 4 mps 738 mmHg 89%
    13:00 -15°C° 0 mm 4 mps 738 mmHg 89%
    14:00 -15°C° 0.1 mm 4 mps 737 mmHg 90%
    15:00 -14°C° 0.1 mm 3 mps 737 mmHg 91%
    16:00 -14°C° 0.1 mm 3 mps 737 mmHg 92%
    17:00 -14°C° 0.1 mm 3 mps 736 mmHg 92%
    18:00 -14°C° 0.1 mm 3 mps 736 mmHg 91%
    19:00 -15°C° 0.1 mm 3 mps 736 mmHg 91%
    20:00 -15°C° 0 mm 3 mps 736 mmHg 91%
    21:00 -16°C° 0 mm 3 mps 736 mmHg 91%
    22:00 -16°C° 0 mm 3 mps 736 mmHg 91%
    23:00 -16°C° 0 mm 3 mps 735 mmHg 91%
    Show more